www.pogodaiklimat.ru

Погода и климат >> Архив погоды >> Россия >> Якутия >> Сухана


ПОГОДА в Сухане

  • Прогноз погоды в Сухане
  • Монитор погоды в Сухане
  • Климат города

АРХИВ ПОГОДЫ в Сухане

Время (UTC), дата Ветер
(напр.,м/с)
 
Видим.   Явления Облачность Т
(С)
Тd
(С)
f
(%)
Тe
(С)
Тes
(С)
Комфортность P
(гПа)
Po
(гПа)
Тmin
(С)
Tmax
(С)
R
(мм)
S
(см)
15 14.02 штиль 0 50 км ясно -45.4 -47.6 78 -45 -45 опасность
обморожения
1026.9 1015.1
18 14.02 штиль 0 50 км ясно -46.8 -49.4 75 -47 -47 опасность
обморожения
1027.3 1015.5
21 14.02 штиль 0 50 км ясно -47.7 -50.5 73 -48 -48 опасность
обморожения
1027.5 1015.5
00 15.02 штиль 0 50 км ясно -48.4 -50.5 79 -48 -48 опасность
обморожения
1018.4 1016.4 -48.4 39
03 15.02 штиль 0 50 км ясно -46.0 -48.5 76 -46 -45 опасность
обморожения
1028.2 1015.4
06 15.02 штиль 0 50 км ясно -41.7 -44.3 76 -42 -41 опасность
обморожения
1028.1 1016.6
09 15.02 ЮЗ 1 50 км 4/0
[Cs]
-42.5 -44.8 78 -48 -48 опасность
обморожения
1028.9 1017.1
12 15.02 штиль 0 50 км ясно -44.4 -46.9 76 -44 -44 опасность
обморожения
1029.0 1017.2 -40.7
15 15.02 штиль 0 50 км ясно -45.9 -48.5 75 -46 -46 опасность
обморожения
1028.6 1016.8
18 15.02 штиль 0 50 км ясно -46.9 -49.4 75 -47 -47 опасность
обморожения
1028.4 1016.6
21 15.02 штиль 0 50 км 3/0
[Cs]
-47.0 -49.5 75 -47 -47 опасность
обморожения
1027.4 1015.6
00 16.02 штиль 0 50 км 4/0
[Cs]
-46.3 -48.5 78 -46 -46 опасность
обморожения
1026.7 1014.9 -47.4 39
03 16.02 штиль 0 50 км 4/0
[Cs]
-44.5 -46.9 77 -45 -44 опасность
обморожения
1025.5 1013.7
06 16.02 штиль 0 50 км 4/0
[Cs]
-40.4 -43.2 74 -40 -40 опасность
обморожения
1023.4 1011.9
09 16.02 штиль 0 50 км 4/0
[Cs]
-40.8 -43.8 73 -41 -41 опасность
обморожения
1022.1 1010.6
12 16.02 штиль 0 50 км ясно -42.2 -44.8 76 -42 -42 опасность
обморожения
1021.6 1010.1 -39.4
15 16.02 штиль 0 50 км ясно -44.3 -46.9 75 -44 -44 опасность
обморожения
1020.3 1008.6
18 16.02 штиль 0 50 км ясно -44.4 -46.9 76 -44 -44 опасность
обморожения
1018.8 1007.1
21 16.02 штиль 0 50 км 8/0
[Cs]
-42.9 -45.5 75 -43 -43 опасность
обморожения
1017.4 1005.7
00 17.02 штиль 0 50 км 4/0
[Ac trans]
-42.1 -44.8 75 -42 -42 опасность
обморожения
1015.7 1004.3 -45.3 39
03 17.02 штиль 0 50 км 6/0
[Cc]
-41.1 -43.8 75 -41 -40 опасность
обморожения
1014.7 1003.3
06 17.02 штиль 0 50 км 8/0
[Ac lent Cs]
-36.6 -39.4 75 -37 -36 опасность
обморожения
1013.1 1001.9
09 17.02 С 1 50 км 8/0
[Ac As]
-34.6 -37.4 76 -39 -39 опасность
обморожения
1012.5 1001.3
12 17.02 штиль 0 50 км ясно -35.7 -38.0 79 -36 -36 опасность
обморожения
1012.6 1001.4 -34.3
15 17.02 штиль 0 50 км ясно -36.5 -38.7 80 -37 -37 опасность
обморожения
1011.5 1000.3
18 17.02 штиль 0 50 км ясно -39.1 -41.1 81 -39 -39 опасность
обморожения
1011.6 1000.2
21 17.02 штиль 0 50 км ясно -42.0 -44.3 78 -42 -42 опасность
обморожения
1010.8 999.5
00 18.02 штиль 0 50 км ясно -41.8 -43.7 82 -42 -42 опасность
обморожения
1010.4 999.1 -42.0 39
03 18.02 штиль 0 50 км 8/0
[Ac As Cs]
-41.1 -43.1 81 -41 -41 опасность
обморожения
1009.9 998.6
06 18.02 штиль 0 50 км 9/0
[Cs]
-35.3 -37.7 79 -35 -35 опасность
обморожения
1008.9 997.8
09 18.02 штиль 0 50 км 9/0
[Ac As Cs]
-36.5 -39.4 74 -37 -37 опасность
обморожения
1009.2 998.1
12 18.02 штиль 0 50 км 5/0
[Ac As]
-36.7 -39.1 78 -37 -37 опасность
обморожения
1009.2 998.1 -35.0
15 18.02 штиль 0 50 км ясно -37.3 -39.5 80 -37 -37 опасность
обморожения
1008.8 997.7
18 18.02 штиль 0 50 км ясно -38.4 -40.7 79 -38 -38 опасность
обморожения
1008.4 997.1
21 18.02 штиль 0 50 км 3/0
[Ac trans]
-40.2 -42.1 82 -40 -40 опасность
обморожения
1007.8 986.5
00 19.02 штиль 0 50 км 3/0
[Ac trans]
-41.3 -43.1 83 -41 -41 опасность
обморожения
1007.9 996.6 -41.6 39
03 19.02 штиль 0 50 км ясно -37.9 -40.9 73 -38 -37 опасность
обморожения
1008.3 997.0
06 19.02 СВ 1 50 км 3/0
[Cs]
-30.7 -33.6 76 -35 -34 опасность
обморожения
1005.8 995.0
09 19.02 ЮВ 1 50 км 5/0
[Ac As]
-27.0 -29.4 80 -31 -31 опасность
обморожения
1006.3 995.7
12 19.02 штиль 0 20 км слабый снег 10/0
[Cs]
-30.5 -32.7 81 -31 -31 опасность
обморожения
1007.3 996.5 -27.0
15 19.02 штиль 0 50 км {снег} 3/0
[Ac trans]
-31.9 -34.3 79 -32 -32 опасность
обморожения
1008.1 997.3
21 19.02 С 1 50 км ясно -38.4 -40.7 79 -43 -43 опасность
обморожения
1011.5 1000.1
00 20.02 штиль 0 50 км ясно -42.2 -44.8 76 -42 -42 опасность
обморожения
1013.7 1002.1 -42.2 0.0 39
03 20.02 штиль 0 50 км ясно -39.5 -41.6 80 -40 -39 опасность
обморожения
1015.3 1003.9
06 20.02 штиль 0 50 км ясно -34.6 -37.4 76 -35 -34 опасность
обморожения
1016.6 1005.4
09 20.02 штиль 0 50 км ясно -36.2 -39.0 75 -36 -36 опасность
обморожения
1018.5 1007.3
12 20.02 штиль 0 50 км ясно -40.1 -42.7 76 -40 -40 опасность
обморожения
1020.9 1009.5 -34.4
15 20.02 штиль 0 50 км ясно -42.8 -45.5 75 -43 -43 опасность
обморожения
1022.1 1010.3
18 20.02 штиль 0 50 км ясно -43.8 -46.1 78 -44 -44 опасность
обморожения
1023.9 1012.1
21 20.02 штиль 0 50 км ясно -46.0 -48.5 76 -46 -46 опасность
обморожения
1024.3 1012.5
03 21.02 штиль 0 50 км ясно -43.7 -46.1 77 -44 -43 опасность
обморожения
1024.8 1013.0
06 21.02 штиль 0 50 км ясно -38.7 -41.3 76 -39 -38 опасность
обморожения
1024.0 1012.5
09 21.02 штиль 0 50 км ясно -38.6 -41.3 75 -39 -39 опасность
обморожения
1024.0 1012.5

 

Местоположение метеостанции Сухана (Якутия, Россия): широта 68.62 долгота 118.30 высота над уровнем моря 77 м.

В архиве по умолчанию представлена погода в Сухане за последнюю неделю. Архивные данные за месяц целиком и за предыдущие месяцы, начиная с января 2011 года, Вы можете получить, выбрав интересующий диапазон дат из раскрывающегося списка и нажав кнопку "Ввод!".

Внимание! Время в таблицах - всемирное. Для получения местного времени необходимо прибавить поправку, которая в Сухане равна 9 ч.

Смотрите также архив погоды в соседних городах и на ближайших метеорологических станциях:

Погода в Джарджане (Якутия, Россия) (231 км)
Погода в Оленеке (Якутия, Россия) (240 км)
Погода в Джалинде (Якутия, Россия) (241 км)
Погода в Эйке (Якутия, Россия) (291 км)
Погода в Жиганске (Якутия, Россия) (294 км)
Погода в Шелагонцах (Якутия, Россия) (316 км)
Погода в Полярном (Якутия, Россия) (326 км)
Погода в Саскылахе (Якутия, Россия) (406 км)
Погода в Тюмяти (Якутия, Россия) (415 км)
Погода в Кюсюре (Якутия, Россия) (419 км)

Пояснения к столбцам:

Ветер - указаны скорость ветра в м/с - средняя за 10 мин, порывы в срок и между сроками (в фигурных скобках) и направление, откуда дует ветер: С - северный, СВ - северо-восточный, В - восточный, ЮВ - юго-восточный, Ю - южный, ЮЗ - юго-западный, З - западный, СЗ - северо-западный.
Видимость - горизонтальная дальность видимости в метрах или километрах. При видимости от 1 до 10 км при отсутствии осадков обычно наблюдается дымка, при ухудшении видимости до 1 км и менее - туман. В сухую погоду видимость может ухудшаться дымом, пылью или мглою.
Явления - указаны атмосферные явления, наблюдавшиеся в срок или в последний час перед сроком; фигурными скобками обозначены явления, наблюдавшиеся между сроками (за 1-3 часа до срока); квадратными скобками обозначены град или гололедные отложения с указанием их диаметра в мм.
Облачность - указаны через наклонную черту общая и нижняя облачность в баллах и высота нижней границы облаков в метрах; квадратными скобками обозначены формы облаков: Ci - перистые, Cs - перисто-слоистые, Cc - перисто-кучевые, Ac - высококучевые, As - высокослоистые, Sc - слоисто-кучевые, Ns - слоисто-дождевые, Cu - кучевые, Cb - кучево-дождевые. Подробнее классификацию облаков см. в Атласе облаков (PDF).
T - Температура воздуха - температура, измеренная на высоте 2 м над землей.
Td - Температура точки росы - температура, при понижении до которой содержащийся в воздухе водяной пар достигнет насыщения.
f - Относительная влажность воздуха - влажноcть воздуха, измеренная на высоте 2 м над землей.
Te - Эффективная температура - температура, которую ощущает одетый по сезону человек в тени. Характеристика душности погоды. При расчете учитывается влияние влажности воздуха и скорости ветра на теплоощущения человека.
Tes - Эффективная температура на солнце - температура, которую ощущает человек, с поправкой на солнечный нагрев. Характеристика знойности погоды. Зависит от высоты солнца над горизонтом, облачности и скорости ветра. Ночью, в пасмурную погоду, а также при ветре 12 м/с и более поправка равна нулю.
P - Атмосферное давление - приведенное к уровню моря атмосферное давление.
Po - Атмосферное давление - измеренное на уровне метеостанции атмосферное давление.
Tmin - Минимальная температура - минимум температуры воздуха на высоте 2 м над землей.
Tmax - Максимальная температура - максимум температуры воздуха на высоте 2 м над землей.
R - Количество осадков - Количество выпавших осадков, мм. При наведении курсора мыши на число - период времени, за который выпало указанное количество осадков.
S - Снежный покров - Высота снежного покрова, см. При наведении курсора мыши на число - состояние снежного покрова и степень покрытия местности в баллах.